Weather History for Cape Girardeau, MO

Change the Weather History Date:

Saturday, May 4, 2013

  Actual Average Record
Temperature  
Mean Temperature 46 °F 63 °F  
Max Temperature 51 °F 74 °F 89 °F (2012)
Min Temperature 40 °F 52 °F 34 °F (1976)
Degree Days  
Heating Degree Days 19 4  
Month to date heating degree days 35 16  
Since 1 July heating degree days 4301 4334  
Cooling Degree Days 0 2  
Month to date cooling degree days 3 8  
Year to date cooling degree days 28 39  
Moisture  
Dew Point 38 °F    
Average Humidity 75    
Maximum Humidity 93    
Minimum Humidity 56    
Precipitation  
Precipitation T in 0.19 in 2.39 in (2003)
Month to date precipitation 1.69 0.77  
Year to date precipitation 14.51 16.41  
Sea Level Pressure  
Sea Level Pressure 29.93 in    
Wind  
Wind Speed 5 mph (South)    
Max Wind Speed 12 mph    
Max Gust Speed 14 mph    
Visibility 10 miles    
Events Rain    
T = Trace of Precipitation, MM = Missing Value Source: NWS Daily Summary

Daily Weather History Graph

Daily Weather History Graph

Search for Another Location

Airport:

Trip Planner

Search our weather history database for the weather conditions in past years. The results will help you decide how hot, cold, wet, or windy it might be!

Date:

Astronomy

May. 04, 2013 Rise Set
Actual Time 5:59 AM CDT 7:50 PM CDT
Civil Twilight 5:31 AM CDT 8:18 PM CDT
Nautical Twilight 4:57 AM CDT 8:53 PM CDT
Astronomical Twilight 4:21 AM CDT 9:30 PM CDT
Moon 2:51 AM CDT (5/4) 2:54 PM CDT (5/4)
Length of Visible Light 14h 47m
Length of Day
13h 50m
Waning Crescent, 27% of the Moon is Illuminated
May 4
Waning Crescent
May 9
New
May 17
First Quarter
May 24
Full
May 31
Last Quarter

Hourly Weather History & Observations

Time (CDT) Temp. Windchill Dew Point Humidity Pressure Visibility Wind Dir Wind Speed Gust Speed Precip Events Conditions
12:27 AM 42.8 °F 38.6 °F 41.0 °F 93% 29.90 in 7.0 mi SSW 6.9 mph - 0.02 in Rain Light Rain
12:53 AM 42.1 °F 38.4 °F 39.9 °F 92% 29.91 in 10.0 mi SSW 5.8 mph - 0.02 in   Overcast
1:12 AM 42.8 °F 40.1 °F 39.2 °F 87% 29.91 in 10.0 mi South 4.6 mph - N/A   Overcast
1:31 AM 42.8 °F 38.6 °F 39.2 °F 87% 29.91 in 10.0 mi SSW 6.9 mph - N/A   Overcast
1:53 AM 42.1 °F 39.2 °F 39.9 °F 92% 29.90 in 10.0 mi South 4.6 mph - N/A   Overcast
2:45 AM 42.8 °F 41.1 °F 39.2 °F 87% 29.88 in 10.0 mi South 3.5 mph - 0.00 in   Mostly Cloudy
2:53 AM 42.1 °F 38.4 °F 39.0 °F 89% 29.88 in 10.0 mi SSW 5.8 mph - 0.00 in   Overcast
3:05 AM 41.0 °F 36.4 °F 39.2 °F 93% 29.88 in 10.0 mi SSW 6.9 mph - N/A   Scattered Clouds
3:14 AM 41.0 °F 35.8 °F 37.4 °F 87% 29.88 in 10.0 mi SSW 8.1 mph - N/A   Scattered Clouds
3:53 AM 41.0 °F 37.1 °F 39.0 °F 93% 29.88 in 7.0 mi SW 5.8 mph - N/A   Overcast
4:53 AM 41.0 °F 36.4 °F 37.9 °F 89% 29.89 in 10.0 mi SSW 6.9 mph - N/A   Overcast
5:17 AM 41.0 °F 36.4 °F 37.4 °F 87% 29.89 in 10.0 mi South 6.9 mph - N/A   Overcast
5:53 AM 39.9 °F 35.1 °F 36.0 °F 86% 29.91 in 10.0 mi South 6.9 mph - N/A   Overcast
6:53 AM 39.9 °F 36.7 °F 36.0 °F 86% 29.93 in 10.0 mi SSW 4.6 mph - N/A   Overcast
7:21 AM 39.2 °F 34.2 °F 37.4 °F 93% 29.92 in 10.0 mi SSW 6.9 mph - N/A   Overcast
7:36 AM 41.0 °F 35.8 °F 37.4 °F 87% 29.93 in 10.0 mi SSW 8.1 mph - N/A   Overcast
7:53 AM 41.0 °F 34.7 °F 36.0 °F 82% 29.94 in 10.0 mi SSW 10.4 mph - N/A   Overcast
8:53 AM 41.0 °F 35.8 °F 34.0 °F 76% 29.95 in 10.0 mi SW 8.1 mph - N/A   Overcast
9:53 AM 43.0 °F 38.2 °F 36.0 °F 76% 29.95 in 10.0 mi SW 8.1 mph - N/A   Overcast
10:53 AM 45.0 °F - 36.0 °F 71% 29.95 in 10.0 mi Calm Calm - N/A   Overcast
11:39 AM 44.6 °F - 35.6 °F 71% 29.96 in 10.0 mi Calm Calm - N/A   Overcast
11:53 AM 45.0 °F 41.2 °F 35.1 °F 68% 29.96 in 10.0 mi SSE 6.9 mph - N/A   Overcast
12:40 PM 44.6 °F 42.2 °F 35.6 °F 71% 29.95 in 10.0 mi SSW 4.6 mph - N/A   Overcast
12:53 PM 45.0 °F 41.8 °F 36.0 °F 71% 29.96 in 10.0 mi South 5.8 mph - N/A   Overcast
1:11 PM 46.4 °F 45.2 °F 37.4 °F 71% 29.95 in 10.0 mi Variable 3.5 mph - N/A   Overcast
1:53 PM 48.0 °F - 35.1 °F 61% 29.95 in 10.0 mi South 4.6 mph - N/A   Overcast
2:53 PM 48.9 °F - 37.9 °F 66% 29.96 in 10.0 mi ESE 5.8 mph - N/A   Overcast
3:53 PM 50.0 °F - 37.9 °F 63% 29.95 in 10.0 mi ESE 3.5 mph - N/A   Overcast
4:53 PM 50.0 °F - 35.1 °F 57% 29.95 in 10.0 mi Calm Calm - N/A   Overcast
5:53 PM 50.0 °F - 37.9 °F 63% 29.96 in 10.0 mi Calm Calm - N/A   Overcast
6:53 PM 48.0 °F - 39.0 °F 71% 29.96 in 10.0 mi East 5.8 mph - N/A   Scattered Clouds
7:53 PM 48.9 °F - 39.0 °F 69% 29.97 in 10.0 mi ENE 4.6 mph - N/A   Overcast
8:53 PM 46.0 °F - 39.9 °F 79% 29.97 in 10.0 mi Calm Calm - N/A   Scattered Clouds
9:53 PM 48.0 °F - 39.9 °F 74% 29.98 in 10.0 mi NNE 4.6 mph - N/A   Clear
10:53 PM 46.0 °F - 41.0 °F 83% 29.97 in 10.0 mi Calm Calm - N/A   Clear
11:53 PM 45.0 °F 42.6 °F 39.9 °F 82% 29.97 in 10.0 mi North 4.6 mph - N/A   Clear